Location: Stuttgart
(48.8069°N, 9.1544°E)
Time: 02:05:04
(UTC+01:00)

ISS - Pass Details

Date: 12 November 2017
Orbit: 402 x 407 km, 51.6° (Epoch: 21 November)

Event Time Altitude Azimuth Distance (km) Brightness Sun altitude
Exits shadow 04:19:52 12° 75° (ENE) 1,357 -0.3 -30.9°
Drops below altitude 10° 04:20:07 10° 76° (ENE) 1,457 -0.1 -30.8°
Sets 04:22:14 0° 82° (E) 2,317 1.2 -30.5°
